Tracking 17265 objects as of 3-September-2015
HD Live streaming from Space Station

Track Soyuz TMA-18M
and Space Station

METEOSAT 3

Track METEOSAT 3 now!
METEOSAT 3 is classified as:


NORAD ID: 19215
Int'l Code: 1988-051A
Perigee: 36,735.1 km
Apogee: 36,769.4 km
Inclination: 15.8 °
Period: 1,485.3 minutes
Semi major axis: 43123 km
RCS: 4.1367 m2 (large)
Launch date: June 15, 1988
Source: European Space Agency (ESA)
Your satellite tracking list
Your tracking list is empty





NASA's NSSDC Master Catalog

Two Line Element Set (TLE):
1 19215U 88051A   15245.43994220 -.00000111  00000-0  00000+0 0  9993
2 19215  15.8416  15.5136 0003981 216.5017 128.3759  0.96947290 85193

Source of the keplerian elements: AFSPC

N2YO: 296